This is the latest recevied weather packets stored in our database for station/object N0KWA. If no packets are shown the sender has not sent any weather packets the latest 10 day(s).
| Time | Temp. | Humidity | Pressure | Rain* | Wind** | Luminosity | Snow |
|---|---|---|---|---|---|---|---|
| 1777914138 | 24.44° C | 53% | 1019.2 hPa | 0 mm | - | 32 W/m² | - |
| 1777913834 | 23.89° C | 51% | 1019.2 hPa | 0 mm | - | 30 W/m² | - |
| 1777913530 | 23.89° C | 50% | 1019.5 hPa | 0 mm | - | 31 W/m² | - |
| 1777913227 | 23.89° C | 50% | 1019.5 hPa | 0 mm | - | 30 W/m² | - |
| 1777912924 | 23.89° C | 50% | 1019.7 hPa | 0 mm | - | 30 W/m² | - |
| 1777912620 | 23.89° C | 57% | 1019.4 hPa | 0 mm | - | 42 W/m² | - |
| 1777912316 | 23.33° C | 52% | 1019.6 hPa | 0 mm | - | 31 W/m² | - |
| 1777912012 | 23.89° C | 52% | 1019.7 hPa | 0 mm | - | 27 W/m² | - |
| 1777911708 | 23.33° C | 53% | 1019.7 hPa | 0 mm | - | 29 W/m² | - |
| 1777911404 | 23.33° C | 52% | 1019.7 hPa | 0 mm | - | 27 W/m² | - |
| 1777911102 | 22.78° C | 49% | 1019.8 hPa | 0 mm | - | 27 W/m² | - |
| 1777910799 | 22.78° C | 54% | 1019.9 hPa | 0 mm | - | 26 W/m² | - |
| 1777910496 | 22.78° C | 53% | 1019.8 hPa | 0 mm | - | 26 W/m² | - |
| 1777910193 | 22.78° C | 53% | 1019.9 hPa | 0 mm | - | 32 W/m² | - |
| 1777909890 | 22.22° C | 59% | 1020 hPa | 0 mm | - | 84 W/m² | - |
| 1777909587 | 22.22° C | 57% | 1020 hPa | 0 mm | - | 27 W/m² | - |
| 1777909284 | 22.22° C | 59% | 1020 hPa | 0 mm | - | 24 W/m² | - |
| 1777908982 | 22.22° C | 58% | 1020.2 hPa | 0 mm | - | 70 W/m² | - |
| 1777908680 | 21.67° C | 60% | 1020 hPa | 0 mm | - | 24 W/m² | - |
| 1777908376 | 21.67° C | 61% | 1020.1 hPa | 0 mm | - | 22 W/m² | - |
| 1777908073 | 21.67° C | 59% | 1020.2 hPa | 0 mm | - | 22 W/m² | - |
| 1777907769 | 21.67° C | 63% | 1020.3 hPa | 0 mm | - | 21 W/m² | - |
| 1777907463 | 21.11° C | 60% | 1020.3 hPa | 0 mm | - | 40 W/m² | - |
| 1777907161 | 21.11° C | 67% | 1020.2 hPa | 0 mm | - | 143 W/m² | - |
| 1777906858 | 20.56° C | 65% | 1020.1 hPa | 0 mm | - | 187 W/m² | - |
* Rain latest hour (hover to see other rain measurements)
** Current wind speed in m/s (hover to see current wind gust speed)